TimeEDT,TemperatureF,Dew PointF,Humidity,Sea Level PressureIn,VisibilityMPH,Wind Direction,Wind SpeedMPH,Gust SpeedMPH,PrecipitationIn,Events,Conditions,WindDirDegrees,DateUTC
12:15 AM,48.2,41.0,76,29.69,10.0,WNW,15.0,23.0,N/A,,Overcast,300,2013-04-12 04:15:00
12:35 AM,46.4,39.2,76,29.70,10.0,WNW,12.7,-,N/A,,Overcast,300,2013-04-12 04:35:00
12:55 AM,46.4,39.2,76,29.71,10.0,NW,17.3,21.9,N/A,,Overcast,310,2013-04-12 04:55:00
1:15 AM,46.4,37.4,71,29.72,10.0,WNW,13.8,19.6,N/A,,Overcast,300,2013-04-12 05:15:00
1:35 AM,44.6,35.6,71,29.73,10.0,West,17.3,24.2,N/A,,Overcast,280,2013-04-12 05:35:00
2:15 AM,42.8,33.8,70,29.73,10.0,WNW,16.1,20.7,N/A,,Clear,290,2013-04-12 06:15:00
2:35 AM,41.0,33.8,76,29.73,10.0,WNW,11.5,-,N/A,,Partly Cloudy,290,2013-04-12 06:35:00
2:55 AM,41.0,33.8,76,29.74,10.0,WNW,13.8,-,N/A,,Clear,290,2013-04-12 06:55:00
3:15 AM,39.2,33.8,81,29.73,10.0,West,8.1,-,N/A,,Partly Cloudy,280,2013-04-12 07:15:00
3:35 AM,39.2,32.0,75,29.73,10.0,West,8.1,-,N/A,,Partly Cloudy,270,2013-04-12 07:35:00
3:55 AM,39.2,33.8,81,29.74,10.0,West,8.1,-,N/A,,Mostly Cloudy,270,2013-04-12 07:55:00
4:15 AM,39.2,33.8,81,29.74,10.0,West,9.2,-,N/A,,Overcast,270,2013-04-12 08:15:00
4:35 AM,41.0,32.0,70,29.74,10.0,West,10.4,16.1,N/A,,Overcast,270,2013-04-12 08:35:00
5:15 AM,37.4,30.2,75,29.76,10.0,WSW,9.2,-,N/A,,Clear,250,2013-04-12 09:15:00
5:35 AM,37.4,30.2,75,29.77,10.0,SW,6.9,-,N/A,,Clear,230,2013-04-12 09:35:00
5:55 AM,37.4,30.2,75,29.77,10.0,SW,8.1,-,N/A,,Clear,230,2013-04-12 09:55:00
6:15 AM,37.4,30.2,75,29.78,10.0,SW,8.1,-,N/A,,Clear,230,2013-04-12 10:15:00
6:35 AM,37.4,28.4,70,29.79,10.0,SW,6.9,-,N/A,,Clear,220,2013-04-12 10:35:00
6:56 AM,35.6,30.2,81,29.79,10.0,SW,8.1,-,N/A,,Clear,220,2013-04-12 10:56:00
7:15 AM,35.6,30.2,81,29.80,10.0,SW,6.9,-,N/A,,Clear,220,2013-04-12 11:15:00
7:35 AM,35.6,30.2,81,29.80,10.0,SSW,8.1,-,N/A,,Clear,210,2013-04-12 11:35:00
7:55 AM,35.6,30.2,81,29.81,10.0,SSW,6.9,-,N/A,,Clear,200,2013-04-12 11:55:00
8:15 AM,37.4,30.2,75,29.81,10.0,South,5.8,-,N/A,,Clear,190,2013-04-12 12:15:00
8:35 AM,39.2,33.8,81,29.82,10.0,SSW,10.4,-,N/A,,Clear,210,2013-04-12 12:35:00
8:55 AM,39.2,33.8,81,29.82,10.0,SSW,10.4,-,N/A,,Clear,200,2013-04-12 12:55:00
9:15 AM,42.8,33.8,70,29.82,10.0,SSW,10.4,-,N/A,,Clear,210,2013-04-12 13:15:00
9:35 AM,42.8,33.8,70,29.82,10.0,SW,10.4,-,N/A,,Clear,220,2013-04-12 13:35:00
9:55 AM,44.6,33.8,66,29.82,10.0,SW,15.0,-,N/A,,Scattered Clouds,220,2013-04-12 13:55:00
10:15 AM,44.6,33.8,66,29.83,10.0,SW,15.0,-,N/A,,Mostly Cloudy,220,2013-04-12 14:15:00
10:55 AM,46.4,35.6,66,29.83,10.0,SW,13.8,-,N/A,,Mostly Cloudy,230,2013-04-12 14:55:00
11:15 AM,44.6,32.0,61,29.83,10.0,SW,17.3,21.9,N/A,,Mostly Cloudy,220,2013-04-12 15:15:00
11:35 AM,48.2,33.8,58,29.83,10.0,SW,18.4,23.0,N/A,,Mostly Cloudy,220,2013-04-12 15:35:00
11:55 AM,46.4,33.8,62,29.83,10.0,SW,13.8,-,N/A,,Overcast,230,2013-04-12 15:55:00
12:15 PM,48.2,33.8,58,29.84,10.0,SW,13.8,20.7,N/A,,Overcast,230,2013-04-12 16:15:00
12:35 PM,48.2,35.6,62,29.83,10.0,SW,17.3,21.9,N/A,,Overcast,230,2013-04-12 16:35:00
12:55 PM,48.2,35.6,62,29.83,10.0,WSW,16.1,21.9,N/A,,Overcast,250,2013-04-12 16:55:00
1:15 PM,50.0,35.6,58,29.83,10.0,WSW,19.6,24.2,N/A,,Overcast,240,2013-04-12 17:15:00
1:55 PM,50.0,35.6,58,29.83,10.0,West,19.6,24.2,N/A,,Overcast,260,2013-04-12 17:55:00
2:15 PM,51.8,35.6,54,29.83,10.0,WSW,21.9,26.5,N/A,,Overcast,250,2013-04-12 18:15:00
2:35 PM,50.0,35.6,58,29.84,10.0,WSW,17.3,25.3,N/A,,Overcast,240,2013-04-12 18:35:00
2:55 PM,51.8,35.6,54,29.85,10.0,WSW,21.9,28.8,N/A,,Overcast,250,2013-04-12 18:55:00
3:15 PM,51.8,37.4,58,29.85,10.0,West,18.4,26.5,N/A,,Overcast,280,2013-04-12 19:15:00
3:35 PM,51.8,35.6,54,29.86,10.0,West,20.7,26.5,N/A,,Overcast,260,2013-04-12 19:35:00
3:55 PM,50.0,35.6,58,29.86,10.0,West,18.4,27.6,N/A,,Overcast,280,2013-04-12 19:55:00
4:15 PM,51.8,35.6,54,29.87,10.0,WNW,18.4,-,N/A,,Overcast,290,2013-04-12 20:15:00
4:35 PM,51.8,35.6,54,29.87,10.0,West,18.4,27.6,N/A,,Mostly Cloudy,270,2013-04-12 20:35:00
4:55 PM,51.8,35.6,54,29.88,10.0,WNW,16.1,23.0,N/A,,Mostly Cloudy,300,2013-04-12 20:55:00
5:15 PM,50.0,33.8,54,29.89,10.0,WNW,16.1,23.0,N/A,,Overcast,300,2013-04-12 21:15:00
5:35 PM,50.0,33.8,54,29.90,10.0,West,21.9,26.5,N/A,,Overcast,280,2013-04-12 21:35:00
5:55 PM,50.0,33.8,54,29.90,10.0,WNW,17.3,20.7,N/A,,Mostly Cloudy,290,2013-04-12 21:55:00
6:15 PM,51.8,33.8,50,29.91,10.0,WNW,19.6,-,N/A,,Partly Cloudy,290,2013-04-12 22:15:00
6:35 PM,51.8,33.8,50,29.91,10.0,WNW,13.8,19.6,N/A,,Partly Cloudy,300,2013-04-12 22:35:00
6:55 PM,50.0,33.8,54,29.92,10.0,WNW,17.3,-,N/A,,Partly Cloudy,290,2013-04-12 22:55:00
7:15 PM,48.2,32.0,54,29.92,10.0,WNW,15.0,20.7,N/A,,Clear,290,2013-04-12 23:15:00
7:35 PM,48.2,32.0,54,29.92,10.0,WNW,12.7,-,N/A,,Clear,290,2013-04-12 23:35:00
7:55 PM,48.2,32.0,54,29.92,10.0,WNW,12.7,-,N/A,,Clear,290,2013-04-12 23:55:00
8:15 PM,44.6,32.0,61,29.93,10.0,West,8.1,-,N/A,,Clear,280,2013-04-13 00:15:00
8:35 PM,44.6,30.2,57,29.93,10.0,NW,8.1,-,N/A,,Clear,310,2013-04-13 00:35:00
8:55 PM,44.6,30.2,57,29.94,10.0,NW,5.8,-,N/A,,Clear,310,2013-04-13 00:55:00
9:15 PM,42.8,30.2,61,29.95,10.0,NW,6.9,-,N/A,,Clear,320,2013-04-13 01:15:00
9:55 PM,42.8,30.2,61,29.97,10.0,NW,8.1,-,N/A,,Clear,310,2013-04-13 01:55:00
10:15 PM,42.8,30.2,61,29.97,10.0,NW,9.2,-,N/A,,Clear,310,2013-04-13 02:15:00
10:35 PM,41.0,30.2,65,29.98,10.0,WNW,8.1,-,N/A,,Clear,300,2013-04-13 02:35:00
10:55 PM,41.0,30.2,65,29.99,10.0,WNW,8.1,-,N/A,,Clear,300,2013-04-13 02:55:00
11:15 PM,39.2,30.2,70,30.00,10.0,WNW,5.8,-,N/A,,Clear,290,2013-04-13 03:15:00
11:35 PM,37.4,30.2,75,30.00,10.0,West,5.8,-,N/A,,Clear,270,2013-04-13 03:35:00
11:55 PM,39.2,30.2,70,30.00,10.0,WSW,5.8,-,N/A,,Clear,250,2013-04-13 03:55:00